Weather in Riyadh

Saudi Arabia     24°39′55″N   46°44′09″E
temp.,
°C
wind,
m/s
gust,
m/s
humid.,
%
clouds,
%
prec.,
mm/h
press.,
hPa
HPBL,
m
7 march, sun
sun700:00+16nne23230 0.0 102145
03:00+14n23240 0.0 101943
06:00+13nne23260 0.0 102140
09:00+18nne44190 0.0 1021477
12:00+23nne33140 0.0 1018845
15:00+25nne22130 0.0 10141288
18:00+23ene33150 0.0 101598
21:00+21e45180 0.0 101677
8 march, mon
mon800:00+19se45200 0.0 101660
03:00+17se45220 0.0 101465
06:00+16sse45220 0.0 101581
09:00+21s79160 0.0 1015379
12:00+29s57120 0.0 10131364
15:00+32wsw76110 0.0 10102644
18:00+28ssw45140 0.0 101054
21:00+25s56160 0.0 101275
9 march, tue
tue900:00+24s610180 0.0 1012150
03:00+22s56200 0.0 101187
06:00+19nnw11260 0.0 101323
09:00+26nnw55180 0.0 1016530
12:00+31wsw46130 0.0 10141871
15:00+32wsw35120 0.0 10112640
18:00+28nne34160 0.0 101286
21:00+24nne611170 0.0 1015281
10 march, wed
wed1000:00+21ne47200 0.0 1016127
03:00+19ne34250 0.0 101657
06:00+17nne34270 0.0 101849
09:00+22ene451821 0.0 1019509
12:00+28e551228 0.0 10171022
15:00+29e541113 0.0 10141654
18:00+26ene55130 0.0 1015138
21:00+23e610150 0.0 1017179
11 march, thu
thu1100:00+21ese69190 0.0 1015169
03:00+18se45240 0.0 101379
06:00+16sse45280 0.0 101478
09:00+22sse79210 0.0 1015486
12:00+28s1013140 0.0 10111271
15:00+32ssw912110 0.0 10082292
18:00+29ssw69130 0.0 1007187
21:00+26s7121631 0.0 1008223